EZY81YX LFRS-EGKK

Flight info

Callsign EZY81YX
Flight time 0h 49m
Altitude 28000
Route BALNI DCT RINSO UM184 EKRAS UT507 REVTU DCT ODREP UP88 VASUX
Aircraft A320/M-SDE3FGHIRWY/LB1

Departure

Time 2026-05-04 20:22
Airport Nantes Atlantique Airport (LFRS)

Arrival

Time 2026-05-04 21:11
Airport London Gatwick Airport (EGKK)
Time Latitude Longitude Altitude Speed Heading
2026-05-04 19:36 47.15646 -1.60160 90 ft 0 kts 58°
2026-05-04 20:07 47.15645 -1.60160 90 ft 0 kts 58°
2026-05-04 20:13 47.15645 -1.60161 90 ft 0 kts 58°
2026-05-04 20:15 47.15645 -1.60162 90 ft 1 kts 58°
2026-05-04 20:15 47.15632 -1.60193 92 ft 4 kts 58°
2026-05-04 20:15 47.15617 -1.60226 90 ft 4 kts 57°
2026-05-04 20:15 47.15602 -1.60258 91 ft 4 kts 44°
2026-05-04 20:16 47.15581 -1.60279 91 ft 4 kts 17°
2026-05-04 20:16 47.15555 -1.60289 92 ft 3 kts 21°
2026-05-04 20:16 47.15551 -1.60291 92 ft 0 kts 24°
2026-05-04 20:18 47.15560 -1.60285 90 ft 4 kts 24°
2026-05-04 20:18 47.15602 -1.60279 91 ft 11 kts 343°
2026-05-04 20:18 47.15679 -1.60370 90 ft 15 kts 319°
2026-05-04 20:19 47.15738 -1.60463 89 ft 9 kts 268°
2026-05-04 20:19 47.15694 -1.60515 89 ft 11 kts 207°
2026-05-04 20:19 47.15579 -1.60606 91 ft 25 kts 208°
2026-05-04 20:19 47.15417 -1.60729 92 ft 26 kts 208°
2026-05-04 20:20 47.15255 -1.60853 90 ft 27 kts 205°
2026-05-04 20:20 47.15084 -1.60982 89 ft 28 kts 207°
2026-05-04 20:20 47.14913 -1.61112 93 ft 25 kts 206°
2026-05-04 20:20 47.14837 -1.61202 91 ft 11 kts 254°
2026-05-04 20:21 47.14820 -1.61293 91 ft 8 kts 253°
2026-05-04 20:21 47.14844 -1.61393 89 ft 16 kts 329°
2026-05-04 20:21 47.15507 -1.60931 91 ft 119 kts 27°
2026-05-04 20:22 47.16405 -1.60240 213 ft 167 kts 27°
2026-05-04 20:22 47.17548 -1.59715 829 ft 179 kts 359°
2026-05-04 20:22 47.18769 -1.60116 1569 ft 185 kts 344°
2026-05-04 20:22 47.20074 -1.60631 1935 ft 205 kts 346°
2026-05-04 20:23 47.21032 -1.60960 2198 ft 221 kts 347°
2026-05-04 20:23 47.22624 -1.61456 2671 ft 244 kts 348°
2026-05-04 20:23 47.24827 -1.62071 3678 ft 254 kts 349°
2026-05-04 20:23 47.26006 -1.62379 4293 ft 257 kts 350°
2026-05-04 20:24 47.27782 -1.62822 5179 ft 261 kts 352°
2026-05-04 20:24 47.29580 -1.63160 6040 ft 265 kts 354°
2026-05-04 20:24 47.31440 -1.63421 6870 ft 270 kts 356°
2026-05-04 20:24 47.33333 -1.63649 7694 ft 275 kts 356°
2026-05-04 20:25 47.35257 -1.63877 8515 ft 279 kts 356°
2026-05-04 20:25 47.37210 -1.64114 9331 ft 284 kts 356°
2026-05-04 20:25 47.39195 -1.64364 10123 ft 288 kts 356°
2026-05-04 20:25 47.41234 -1.64629 10486 ft 309 kts 356°
2026-05-04 20:26 47.43459 -1.64924 10786 ft 329 kts 356°
2026-05-04 20:26 47.45644 -1.65216 11366 ft 337 kts 355°
2026-05-04 20:26 47.48001 -1.65533 12068 ft 342 kts 355°
2026-05-04 20:26 47.50388 -1.65855 12770 ft 347 kts 355°
2026-05-04 20:27 47.52782 -1.66177 13454 ft 352 kts 355°
2026-05-04 20:27 47.55241 -1.66509 14094 ft 356 kts 355°
2026-05-04 20:27 47.57733 -1.66841 14699 ft 361 kts 355°
2026-05-04 20:27 47.60245 -1.67064 15294 ft 365 kts
2026-05-04 20:28 47.62782 -1.66613 15900 ft 367 kts 14°
2026-05-04 20:28 47.65213 -1.65442 16496 ft 370 kts 23°
2026-05-04 20:28 47.67634 -1.64035 17104 ft 374 kts 23°
2026-05-04 20:28 47.70038 -1.62639 17703 ft 378 kts 23°
2026-05-04 20:29 47.72513 -1.61204 18279 ft 382 kts 23°
2026-05-04 20:29 47.75002 -1.59761 18796 ft 386 kts 23°
2026-05-04 20:29 47.77520 -1.58298 19316 ft 389 kts 23°
2026-05-04 20:29 47.80053 -1.56824 19836 ft 392 kts 23°
2026-05-04 20:30 47.82612 -1.55335 20355 ft 396 kts 23°
2026-05-04 20:30 47.85152 -1.53857 20867 ft 399 kts 23°
2026-05-04 20:30 47.87779 -1.52321 21360 ft 402 kts 23°
2026-05-04 20:30 47.90356 -1.50815 21857 ft 405 kts 23°
2026-05-04 20:31 47.93005 -1.49267 22364 ft 408 kts 23°
2026-05-04 20:31 47.95665 -1.47713 22845 ft 411 kts 23°
2026-05-04 20:31 47.98336 -1.46151 23324 ft 413 kts 23°
2026-05-04 20:31 48.01058 -1.44700 23743 ft 418 kts 17°
2026-05-04 20:32 48.03920 -1.43901 24114 ft 423 kts
2026-05-04 20:32 48.06843 -1.43849 24453 ft 428 kts 358°
2026-05-04 20:32 48.09843 -1.44078 24799 ft 432 kts 358°
2026-05-04 20:32 48.12868 -1.44306 25136 ft 435 kts 358°
2026-05-04 20:33 48.15908 -1.44530 25474 ft 439 kts 358°
2026-05-04 20:33 48.18973 -1.44749 25805 ft 443 kts 358°
2026-05-04 20:33 48.22027 -1.44964 26136 ft 446 kts 358°
2026-05-04 20:33 48.25140 -1.45182 26461 ft 450 kts 358°
2026-05-04 20:34 48.28284 -1.45407 26786 ft 453 kts 358°
2026-05-04 20:34 48.31450 -1.45637 27101 ft 457 kts 358°
2026-05-04 20:34 48.34641 -1.45873 27426 ft 460 kts 358°
2026-05-04 20:34 48.37850 -1.46111 27749 ft 463 kts 358°
2026-05-04 20:35 48.41085 -1.46351 27953 ft 465 kts 358°
2026-05-04 20:35 48.44273 -1.46582 27984 ft 450 kts 358°
2026-05-04 20:35 48.47346 -1.46802 27981 ft 445 kts 358°
2026-05-04 20:35 48.50442 -1.47021 27984 ft 443 kts 358°
2026-05-04 20:36 48.53532 -1.47243 27988 ft 442 kts 358°
2026-05-04 20:36 48.56610 -1.47465 27988 ft 442 kts 358°
2026-05-04 20:36 48.59646 -1.47684 27988 ft 442 kts 358°
2026-05-04 20:36 48.62725 -1.47909 27989 ft 442 kts 358°
2026-05-04 20:37 48.65808 -1.48135 27990 ft 442 kts 358°
2026-05-04 20:37 48.68884 -1.48358 27990 ft 442 kts 358°
2026-05-04 20:37 48.71919 -1.48574 27993 ft 441 kts 358°
2026-05-04 20:37 48.74995 -1.48794 27992 ft 441 kts 358°
2026-05-04 20:38 48.78076 -1.49019 27989 ft 441 kts 358°
2026-05-04 20:38 48.81142 -1.49252 27994 ft 441 kts 358°
2026-05-04 20:38 48.84181 -1.49482 27991 ft 441 kts 358°
2026-05-04 20:38 48.87253 -1.49709 27994 ft 441 kts 358°
2026-05-04 20:39 48.90311 -1.50072 27996 ft 441 kts 351°
2026-05-04 20:39 48.93327 -1.50974 27994 ft 441 kts 348°
2026-05-04 20:39 48.96339 -1.51950 27993 ft 441 kts 347°
2026-05-04 20:39 48.99346 -1.52921 27993 ft 441 kts 348°
2026-05-04 20:40 49.02305 -1.53867 27995 ft 441 kts 348°
2026-05-04 20:40 49.05302 -1.54828 27992 ft 441 kts 348°
2026-05-04 20:40 49.08306 -1.55794 27989 ft 441 kts 348°
2026-05-04 20:40 49.11307 -1.56765 27995 ft 441 kts 348°
2026-05-04 20:41 49.14315 -1.57736 27999 ft 441 kts 348°
2026-05-04 20:41 49.17323 -1.58704 27998 ft 441 kts 348°
2026-05-04 20:41 49.20288 -1.59656 27999 ft 441 kts 348°
2026-05-04 20:41 49.23294 -1.60629 27999 ft 441 kts 347°
2026-05-04 20:42 49.29291 -1.62585 28003 ft 440 kts 347°
2026-05-04 20:42 49.35302 -1.64530 28004 ft 440 kts 348°
2026-05-04 20:43 49.41131 -1.66427 28007 ft 440 kts 347°
2026-05-04 20:43 49.47135 -1.68405 28006 ft 440 kts 347°
2026-05-04 20:44 49.53123 -1.70377 28007 ft 439 kts 347°
2026-05-04 20:44 49.59151 -1.71433 28006 ft 439 kts
2026-05-04 20:45 49.65095 -1.69586 28008 ft 435 kts 22°
2026-05-04 20:45 49.70801 -1.66406 28006 ft 435 kts 22°
2026-05-04 20:46 49.76469 -1.63284 28009 ft 435 kts 21°
2026-05-04 20:46 49.82195 -1.60134 28008 ft 435 kts 21°
2026-05-04 20:47 49.87732 -1.57060 28009 ft 435 kts 21°
2026-05-04 20:47 49.93439 -1.53873 28010 ft 435 kts 21°
2026-05-04 20:48 49.99139 -1.50682 28011 ft 434 kts 21°
2026-05-04 20:48 50.04840 -1.47676 28014 ft 434 kts 19°
2026-05-04 20:49 50.10625 -1.44928 27928 ft 436 kts 18°
2026-05-04 20:49 50.13542 -1.43557 27238 ft 438 kts 18°
2026-05-04 20:49 50.16445 -1.42176 26780 ft 432 kts 18°
2026-05-04 20:50 50.19308 -1.40787 26308 ft 427 kts 18°
2026-05-04 20:50 50.22133 -1.39399 25835 ft 422 kts 19°
2026-05-04 20:50 50.24885 -1.38034 25381 ft 417 kts 19°
2026-05-04 20:50 50.27662 -1.36655 24926 ft 412 kts 19°
2026-05-04 20:51 50.30347 -1.35325 24457 ft 408 kts 18°
2026-05-04 20:51 50.33051 -1.33989 23987 ft 405 kts 18°
2026-05-04 20:51 50.35734 -1.32663 23487 ft 402 kts 18°
2026-05-04 20:51 50.38389 -1.31351 22974 ft 398 kts 18°
2026-05-04 20:52 50.41019 -1.30057 22502 ft 393 kts 19°
2026-05-04 20:52 50.43621 -1.28774 22022 ft 389 kts 19°
2026-05-04 20:52 50.46190 -1.27496 21561 ft 385 kts 19°
2026-05-04 20:52 50.48694 -1.26189 21109 ft 381 kts 24°
2026-05-04 20:53 50.51037 -1.24284 20645 ft 375 kts 35°
2026-05-04 20:53 50.53094 -1.21772 20203 ft 371 kts 42°
2026-05-04 20:53 50.55062 -1.19173 19760 ft 368 kts 42°
2026-05-04 20:53 50.57014 -1.16597 19319 ft 365 kts 42°
2026-05-04 20:54 50.58935 -1.14062 18894 ft 362 kts 42°
2026-05-04 20:54 50.60833 -1.11557 18482 ft 359 kts 42°
2026-05-04 20:54 50.62742 -1.09037 18092 ft 355 kts 41°
2026-05-04 20:54 50.64634 -1.06539 17639 ft 352 kts 41°
2026-05-04 20:55 50.66401 -1.03886 17128 ft 350 kts 51°
2026-05-04 20:55 50.67934 -1.00927 16695 ft 347 kts 52°
2026-05-04 20:55 50.69439 -0.98021 16280 ft 344 kts 52°
2026-05-04 20:55 50.70949 -0.95119 15861 ft 341 kts 51°
2026-05-04 20:56 50.72451 -0.92237 15449 ft 339 kts 51°
2026-05-04 20:56 50.73942 -0.89370 15034 ft 337 kts 51°
2026-05-04 20:56 50.75427 -0.86512 14589 ft 336 kts 51°
2026-05-04 20:56 50.76904 -0.83655 14235 ft 333 kts 51°
2026-05-04 20:57 50.78344 -0.80864 14095 ft 322 kts 51°
2026-05-04 20:57 50.79741 -0.78151 13980 ft 312 kts 52°
2026-05-04 20:57 50.80879 -0.75281 13764 ft 306 kts 66°
2026-05-04 20:57 50.81524 -0.72106 13425 ft 303 kts 79°
2026-05-04 20:58 50.81898 -0.68825 13076 ft 301 kts 80°
2026-05-04 20:58 50.82263 -0.65636 13007 ft 297 kts 79°
2026-05-04 20:58 50.82633 -0.62432 12828 ft 296 kts 79°
2026-05-04 20:58 50.83007 -0.59205 12380 ft 298 kts 79°
2026-05-04 20:59 50.83382 -0.55976 12002 ft 298 kts 79°
2026-05-04 20:59 50.83755 -0.52766 11635 ft 296 kts 80°
2026-05-04 20:59 50.84125 -0.49568 11288 ft 295 kts 80°
2026-05-04 20:59 50.84493 -0.46376 10942 ft 293 kts 80°
2026-05-04 21:00 50.84858 -0.43204 10593 ft 292 kts 80°
2026-05-04 21:00 50.85215 -0.40100 10314 ft 289 kts 80°
2026-05-04 21:00 50.85572 -0.36979 10082 ft 287 kts 80°
2026-05-04 21:00 50.85928 -0.33849 9656 ft 289 kts 80°
2026-05-04 21:01 50.86283 -0.30696 9183 ft 291 kts 80°
2026-05-04 21:01 50.86651 -0.27599 8634 ft 295 kts 76°
2026-05-04 21:01 50.87547 -0.24702 8016 ft 293 kts 50°
2026-05-04 21:01 50.89103 -0.22778 7413 ft 286 kts 24°
2026-05-04 21:02 50.91009 -0.22205 7010 ft 274 kts 355°
2026-05-04 21:02 50.92794 -0.23047 6531 ft 266 kts 331°
2026-05-04 21:02 50.94360 -0.24590 5909 ft 264 kts 327°
2026-05-04 21:02 50.95846 -0.26194 5646 ft 248 kts 326°
2026-05-04 21:03 50.97229 -0.27716 5324 ft 237 kts 326°
2026-05-04 21:03 50.98552 -0.29184 4878 ft 233 kts 326°
2026-05-04 21:03 50.99873 -0.30664 4407 ft 232 kts 325°
2026-05-04 21:03 51.01112 -0.32304 3950 ft 232 kts 320°
2026-05-04 21:04 51.02303 -0.34023 3491 ft 230 kts 319°
2026-05-04 21:04 51.03430 -0.35674 3063 ft 228 kts 319°
2026-05-04 21:04 51.04601 -0.37394 3005 ft 230 kts 319°
2026-05-04 21:04 51.05786 -0.39135 3010 ft 231 kts 319°
2026-05-04 21:05 51.06952 -0.40847 3000 ft 222 kts 319°
2026-05-04 21:05 51.08005 -0.42547 3002 ft 210 kts 313°
2026-05-04 21:05 51.08903 -0.44255 2997 ft 198 kts 311°
2026-05-04 21:05 51.09761 -0.45932 3002 ft 194 kts 314°
2026-05-04 21:06 51.10789 -0.47221 2819 ft 185 kts 347°
2026-05-04 21:06 51.11959 -0.47004 2687 ft 165 kts 39°
2026-05-04 21:06 51.12441 -0.45496 2540 ft 157 kts 94°
2026-05-04 21:06 51.12072 -0.43876 2314 ft 157 kts 109°
2026-05-04 21:07 51.11889 -0.42182 2080 ft 154 kts 88°
2026-05-04 21:07 51.11956 -0.40483 2021 ft 153 kts 82°
2026-05-04 21:07 51.12117 -0.38808 2010 ft 153 kts 78°
2026-05-04 21:07 51.12317 -0.37159 2032 ft 154 kts 77°
2026-05-04 21:08 51.12537 -0.35487 1998 ft 155 kts 77°
2026-05-04 21:08 51.12765 -0.33810 1868 ft 154 kts 76°
2026-05-04 21:08 51.12993 -0.32156 1689 ft 153 kts 76°
2026-05-04 21:08 51.13223 -0.30504 1479 ft 151 kts 76°
2026-05-04 21:09 51.13438 -0.28948 1282 ft 138 kts 76°
2026-05-04 21:09 51.13575 -0.27968 1157 ft 135 kts 76°
2026-05-04 21:09 51.13841 -0.26051 914 ft 133 kts 76°
2026-05-04 21:09 51.14041 -0.24614 735 ft 132 kts 76°
2026-05-04 21:10 51.14242 -0.23178 570 ft 132 kts 76°
2026-05-04 21:10 51.14375 -0.22232 458 ft 132 kts 76°
2026-05-04 21:10 51.14568 -0.20795 290 ft 132 kts 76°
2026-05-04 21:10 51.14816 -0.19029 209 ft 99 kts 77°
2026-05-04 21:11 51.14898 -0.18424 208 ft 66 kts 77°
2026-05-04 21:11 51.15018 -0.17879 212 ft 42 kts 54°
2026-05-04 21:11 51.15175 -0.17754 211 ft 15 kts 341°
2026-05-04 21:11 51.15239 -0.17775 205 ft 8 kts 10°
2026-05-04 21:12 51.15265 -0.17702 208 ft 9 kts 75°
2026-05-04 21:12 51.15277 -0.17610 206 ft 4 kts 78°
2026-05-04 21:12 51.15283 -0.17565 204 ft 4 kts 78°
2026-05-04 21:12 51.15288 -0.17531 204 ft 2 kts 78°
2026-05-04 21:13 51.15294 -0.17478 207 ft 13 kts 81°
2026-05-04 21:13 51.15347 -0.17370 209 ft 16 kts
2026-05-04 21:13 51.15439 -0.17399 207 ft 10 kts 348°
2026-05-04 21:13 51.15490 -0.17417 204 ft 8 kts 348°
2026-05-04 21:14 51.15535 -0.17473 216 ft 10 kts 282°
2026-05-04 21:14 51.15528 -0.17580 207 ft 7 kts 259°
2026-05-04 21:14 51.15524 -0.17611 204 ft 5 kts 259°
2026-05-04 21:14 51.15555 -0.17675 204 ft 8 kts 351°
2026-05-04 21:15 51.15581 -0.17682 215 ft 0 kts 348°